CW4588 Weather Reports


Display with metric or nautical units.
time (UTC)temp
F
wind
direction
speed
MPH
gust
MPH
rain 1hr
in
rain 24hr
in
rain mn
in
humidity
%
barometer
mb
20260904052537 48 92 0.0 0.0 0.00 0.00 0.00 100 995.6
20260904052041 47 94 0.0 0.0 0.00 0.00 0.00 100 995.6
20260904051528 46 92 0.0 0.0 0.00 0.00 0.00 100 995.5
20260904051031 45 92 0.0 0.0 0.00 0.00 0.00 100 995.5
20260904050530 44 94 0.0 0.0 0.00 0.00 0.00 100 995.5
20260904050034 44 95 0.0 0.0 0.00 0.00 0.00 100 995.5
20260904045549 44 95 0.0 0.0 0.00 0.00 0.00 100 995.6
20260904045048 44 95 0.0 0.0 0.00 0.00 0.00 100 995.6
20260904044546 44 95 0.0 0.0 0.00 0.00 0.00 100 995.6
20260904044031 44 95 0.0 0.0 0.00 0.00 0.00 100 995.6
20260904043538 44 95 0.0 0.0 0.00 0.00 0.00 100 995.6
20260904043024 44 95 0.0 0.0 0.00 0.00 0.00 100 995.6
20260904042534 44 95 0.0 0.0 0.00 0.00 0.00 100 995.7
20260904042050 44 95 0.0 0.0 0.00 0.00 0.00 100 995.7
20260904041547 44 95 0.0 0.0 0.00 0.00 0.00 100 995.7
20260904041032 43 95 0.0 0.0 0.00 0.00 0.00 100 995.9
20260904040537 44 95 0.0 0.0 0.00 0.00 0.00 100 995.9
20260904040035 44 95 0.0 0.0 0.00 0.00 0.00 99 995.9
20260904035550 44 95 0.0 0.0 0.00 0.00 0.00 99 996.1
20260904035036 44 95 0.0 0.0 0.00 0.00 0.00 99 996.1
20260904034530 44 95 0.0 0.0 0.00 0.00 0.00 99 996.1
20260904034039 44 95 0.0 0.0 0.00 0.00 0.00 99 996.1
20260904033523 44 95 0.0 0.0 0.00 0.00 0.00 99 996.1
20260904033039 44 95 0.0 0.0 0.00 0.00 0.00 99 996.1
20260904032523 44 95 0.0 0.0 0.00 0.00 0.00 99 996.1
20260904032029 44 95 0.0 0.0 0.00 0.00 0.00 99 996.1
20260904031606 44 95 0.0 0.0 0.00 0.00 0.00 98 996.1
20260904031056 44 95 0.0 0.0 0.00 0.00 0.00 98 996.3
20260904030522 43 60 0.0 0.0 0.00 0.00 0.00 98 996.3
20260904030039 43 60 0.0 0.0 0.00 0.00 0.00 97 996.3
20260904025532 43 60 0.0 0.0 0.00 0.00 0.00 97 996.2
20260904025022 43 60 0.0 0.0 0.00 0.00 0.00 97 996.2
20260904024532 43 60 0.0 0.0 0.00 0.00 0.00 97 996.2
20260904024050 43 60 0.0 0.0 0.00 0.00 0.00 97 996.4
20260904023024 43 60 0.0 0.0 0.00 0.00 0.00 96 996.4
20260904022534 43 60 0.0 0.0 0.00 0.00 0.00 96 996.5
20260904022050 43 60 0.0 0.0 0.00 0.00 0.00 96 996.5
20260904021536 43 60 0.0 0.0 0.00 0.00 0.00 96 996.5
20260904021020 43 60 0.0 0.0 0.00 0.00 0.00 95 996.4
20260904020545 43 60 0.0 0.0 0.00 0.00 0.00 95 996.4
20260904020036 43 60 0.0 0.0 0.00 0.00 0.00 95 996.4
20260904015530 44 60 0.0 0.0 0.00 0.00 0.00 95 996.6
20260904015041 44 60 0.0 0.0 0.00 0.00 0.00 95 996.6
20260904014527 44 60 0.0 0.0 0.00 0.00 0.00 95 996.6
20260904014035 44 60 0.0 0.0 0.00 0.00 0.00 95 996.5
20260904013550 45 60 0.0 0.0 0.00 0.00 0.00 95 996.5
20260904013032 45 60 0.0 0.0 0.00 0.00 0.00 95 996.5
20260904012034 45 60 0.0 0.0 0.00 0.00 0.00 95 996.6
20260904010533 46 60 0.0 0.0 0.00 0.00 0.00 95 996.7
20260904010028 46 60 0.0 0.0 0.00 0.00 0.00 95 996.8
20260904005533 47 60 0.0 0.0 0.00 0.00 0.00 95 996.8
20260904005052 47 60 0.0 0.0 0.00 0.00 0.00 95 996.8
20260904004532 47 60 0.0 0.0 0.00 0.00 0.00 95 996.8
20260904004039 47 60 0.0 0.0 0.00 0.00 0.00 95 997.0
20260904003554 47 140 0.0 0.0 0.00 0.00 0.00 95 997.0
20260904003052 47 142 0.0 0.0 0.00 0.00 0.00 95 997.0
20260904002557 47 142 0.0 0.0 0.00 0.00 0.00 94 997.1
20260904002030 47 126 0.0 0.0 0.00 0.00 0.00 93 997.1
20260904000530 48 126 0.0 0.0 0.00 0.00 0.00 93 997.2
20260903235521 48 126 0.0 0.0 0.00 0.00 0.00 92 997.3
20260903235025 49 144 0.0 0.0 0.00 0.00 0.00 92 997.3
20260903234537 49 144 0.0 0.0 0.00 0.00 0.00 92 997.3
20260903234027 49 146 0.0 0.0 0.00 0.00 0.00 92 997.5
20260903233535 49 139 0.0 0.0 0.00 0.00 0.00 92 997.5
20260903233039 49 123 0.0 0.0 0.00 0.00 0.00 92 997.5
20260903232556 50 123 0.0 0.0 0.00 0.00 0.00 92 997.5
20260903232043 50 137 0.0 0.0 0.00 0.00 0.00 92 997.5
20260903231537 50 137 0.0 0.0 0.00 0.00 0.00 92 997.5
20260903231022 50 112 0.0 0.0 0.00 0.00 0.00 92 997.6
20260903230531 50 143 1.0 0.0 0.00 0.00 0.00 92 997.6
20260903230026 50 122 0.0 0.0 0.00 0.00 0.00 92 997.6
20260903225533 50 146 0.0 0.0 0.00 0.00 0.00 92 997.5
20260903225049 50 134 0.0 0.0 0.00 0.00 0.00 91 997.5
20260903224558 50 136 0.0 0.0 0.00 0.00 0.00 91 997.5
20260903224057 50 215 0.0 0.0 0.00 0.00 0.00 91 997.6
20260903223521 50 218 0.0 0.0 0.00 0.00 0.00 91 997.6
20260903223054 50 218 0.0 0.0 0.00 0.00 0.00 91 997.6
20260903222528 50 218 0.0 0.0 0.00 0.00 0.00 91 997.6
20260903221525 50 218 0.0 0.0 0.00 0.00 0.00 90 997.6
20260903221032 51 218 0.0 0.0 0.00 0.00 0.00 90 997.6
20260903220539 51 218 0.0 0.0 0.00 0.00 0.00 90 997.6
20260903220058 51 218 0.0 0.0 0.00 0.00 0.00 90 997.6
20260903215520 51 218 0.0 0.0 0.00 0.00 0.00 90 997.6
20260903215028 51 218 0.0 0.0 0.00 0.00 0.00 90 997.6
20260903214534 51 218 0.0 0.0 0.00 0.00 0.00 89 997.6
20260903214047 52 218 0.0 0.0 0.00 0.00 0.00 89 997.5
20260903213535 52 218 0.0 0.0 0.00 0.00 0.00 89 997.5
20260903213054 52 218 0.0 0.0 0.00 0.00 0.00 89 997.5
20260903212534 52 218 0.0 0.0 0.00 0.00 0.00 89 997.6
20260903212021 52 218 0.0 0.0 0.00 0.00 0.00 88 997.6
20260903211536 52 218 0.0 0.0 0.00 0.00 0.00 88 997.6
20260903211023 52 218 0.0 0.0 0.00 0.00 0.00 88 997.6
20260903210532 52 215 0.0 0.0 0.00 0.00 0.00 88 997.6
20260903210028 52 242 0.0 0.0 0.00 0.00 0.00 89 997.6
20260903205535 52 202 0.0 0.0 0.00 0.00 0.00 88 997.6
20260903205048 53 260 0.0 0.0 0.00 0.00 0.00 88 997.6
20260903204538 53 212 0.0 0.0 0.00 0.00 0.00 89 997.6
20260903204024 53 185 0.0 0.0 0.00 0.00 0.00 89 997.7
20260903203541 53 254 0.0 0.0 0.00 0.00 0.00 89 997.7
20260903203053 53 216 0.0 0.0 0.00 0.00 0.00 89 997.7
20260903202526 53 216 0.0 0.0 0.00 0.00 0.00 89 997.8
20260903202104 53 239 0.0 0.0 0.00 0.00 0.00 89 997.8
20260903201542 53 223 0.0 0.0 0.00 0.00 0.00 89 997.8
20260903201035 53 233 0.0 0.0 0.00 0.00 0.00 88 997.9
20260903200538 53 267 0.0 0.0 0.00 0.00 0.00 88 997.9
20260903200026 53 267 0.0 0.0 0.00 0.00 0.00 88 997.9
20260903195535 53 216 0.0 0.0 0.00 0.00 0.00 88 997.9
20260903195023 53 208 0.0 0.0 0.00 0.00 0.00 87 997.9
20260903194538 53 229 0.0 0.0 0.00 0.00 0.00 87 997.9
20260903194026 53 240 0.0 0.0 0.00 0.00 0.00 87 998.0
20260903193531 53 225 0.0 0.0 0.00 0.00 0.00 86 998.0
20260903193030 54 182 0.0 0.0 0.00 0.00 0.00 86 998.0
20260903192537 54 233 0.0 0.0 0.00 0.00 0.00 86 997.9
20260903192025 54 256 0.0 0.0 0.00 0.00 0.00 85 997.9
20260903191537 54 256 0.0 0.0 0.00 0.00 0.00 85 997.9
20260903191023 54 256 0.0 0.0 0.00 0.00 0.00 84 997.8
20260903190539 54 256 0.0 0.0 0.00 0.00 0.00 83 997.8
20260903190050 55 256 0.0 0.0 0.00 0.00 0.00 83 997.8
20260903185527 55 256 0.0 0.0 0.00 0.00 0.00 83 997.7
20260903185033 55 256 0.0 0.0 0.00 0.00 0.00 82 997.7
20260903184605 55 222 0.0 0.0 0.00 0.00 0.00 82 997.7
20260903184030 55 236 0.0 0.0 0.00 0.00 0.00 81 997.8
20260903183539 55 233 0.0 0.0 0.00 0.00 0.00 81 997.8
20260903183023 56 230 0.0 0.0 0.00 0.00 0.00 80 997.8
20260903182535 56 222 0.0 0.0 0.00 0.00 0.00 80 998.1
20260903181548 56 228 0.0 0.0 0.00 0.00 0.00 78 998.1
20260903181036 56 205 0.0 0.0 0.00 0.00 0.00 78 998.1
20260903180521 57 215 0.0 0.0 0.00 0.00 0.00 77 998.1
20260903180026 57 270 0.0 0.0 0.00 0.00 0.00 76 998.1
20260903175542 57 191 0.0 0.0 0.00 0.00 0.00 76 997.9
20260903175030 57 236 0.0 0.0 0.00 0.00 0.00 76 997.9
20260903174543 57 218 0.0 0.0 0.00 0.00 0.00 75 997.9
20260903173545 58 245 0.0 0.0 0.00 0.00 0.00 74 997.8
20260903173038 58 212 0.0 0.0 0.00 0.00 0.00 75 997.8
20260903172528 58 238 0.0 0.0 0.00 0.00 0.00 75 997.7
20260903171532 59 223 0.0 0.0 0.00 0.00 0.00 74 997.7
20260903171039 59 252 0.0 0.0 0.00 0.00 0.00 72 997.7
20260903170535 59 232 0.0 0.0 0.00 0.00 0.00 71 997.7
20260903170021 59 302 0.0 0.0 0.00 0.00 0.00 70 997.7
20260903165527 59 302 0.0 0.0 0.00 0.00 0.00 69 997.6
20260903165046 59 302 0.0 0.0 0.00 0.00 0.00 68 997.6
20260903164531 60 235 0.0 0.0 0.00 0.00 0.00 68 997.6
20260903164038 60 310 0.0 0.0 0.00 0.00 0.00 66 997.6
20260903163528 60 270 0.0 0.0 0.00 0.00 0.00 67 997.6
20260903163048 60 223 0.0 0.0 0.00 0.00 0.00 66 997.6
20260903162549 61 242 0.0 0.0 0.00 0.00 0.00 64 997.6
20260903162032 61 239 0.0 0.0 0.00 0.00 0.00 64 997.6
20260903161529 61 177 0.0 0.0 0.00 0.00 0.00 64 997.6
20260903161034 61 225 0.0 0.0 0.00 0.00 0.00 64 997.5
20260903160520 61 253 0.0 0.0 0.00 0.00 0.00 63 997.5
20260903160036 61 205 0.0 0.0 0.00 0.00 0.00 60 997.5
20260903155542 61 263 1.0 0.0 0.00 0.00 0.00 60 997.5
20260903155047 62 232 1.0 0.0 0.00 0.00 0.00 58 997.5
20260903154543 62 233 1.0 0.0 0.00 0.00 0.00 58 997.5
20260903154022 62 206 1.0 0.0 0.00 0.00 0.00 57 997.5
20260903153528 63 177 0.0 0.0 0.00 0.00 0.00 57 997.5
20260903153032 63 185 0.0 0.0 0.00 0.00 0.00 59 997.5
20260903152545 63 260 0.0 0.0 0.00 0.00 0.00 57 997.6
20260903152028 64 308 0.0 0.0 0.00 0.00 0.00 54 997.6
20260903151533 64 301 0.0 0.0 0.00 0.00 0.00 55 997.6
20260903151043 64 300 0.0 0.0 0.00 0.00 0.00 55 997.6
20260903150525 64 256 0.0 0.0 0.00 0.00 0.00 51 997.6
20260903150040 65 304 0.0 0.0 0.00 0.00 0.00 51 997.6
20260903145543 65 310 0.0 0.0 0.00 0.00 0.00 51 997.4
20260903145054 65 317 1.0 0.0 0.00 0.00 0.00 50 997.4
20260903144548 66 219 1.0 0.0 0.00 0.00 0.00 47 997.4
20260903144054 66 195 2.0 0.0 0.00 0.00 0.00 50 997.2
20260903143521 66 225 1.0 0.0 0.00 0.00 0.00 51 997.2
20260903143035 66 72 1.0 0.0 0.00 0.00 0.00 50 997.2
20260903142538 66 174 1.0 0.0 0.00 0.00 0.00 50 997.1
20260903142045 66 338 1.0 0.0 0.00 0.00 0.00 51 997.1
20260903141540 66 222 2.0 0.0 0.00 0.00 0.00 51 997.1
20260903141027 66 206 2.0 0.0 0.00 0.00 0.00 49 997.2
20260903140544 66 202 2.0 0.0 0.00 0.00 0.00 51 997.2
20260903140032 66 225 1.0 0.0 0.00 0.00 0.00 51 997.2
20260903135546 67 198 2.0 0.0 0.00 0.00 0.00 49 997.2
20260903135030 67 223 1.0 0.0 0.00 0.00 0.00 48 997.2
20260903134534 68 195 1.0 0.0 0.00 0.00 0.00 50 997.2
20260903134023 69 335 1.0 0.0 0.00 0.00 0.00 46 997.2
20260903133533 69 243 1.0 0.0 0.00 0.00 0.00 47 997.2
20260903133034 68 250 2.0 0.0 0.00 0.00 0.00 49 997.2
20260903132522 68 232 2.0 0.0 0.00 0.00 0.00 48 997.2
20260903132028 68 216 2.0 0.0 0.00 0.00 0.00 52 997.2
20260903131527 68 286 1.0 0.0 0.00 0.00 0.00 51 997.2
20260903131034 68 242 3.0 0.0 0.00 0.00 0.00 55 997.2
20260903130522 68 238 3.0 0.0 0.00 0.00 0.00 54 997.2
20260903130038 69 223 2.0 0.0 0.00 0.00 0.00 52 997.2
20260903125526 69 182 2.0 0.0 0.00 0.00 0.00 51 997.1
20260903125036 69 216 2.0 0.0 0.00 0.00 0.00 51 997.1
20260903124539 69 195 2.0 0.0 0.00 0.00 0.00 52 997.1
20260903124036 69 278 1.0 0.0 0.00 0.00 0.00 48 997.1
20260903123541 69 197 2.0 0.0 0.00 0.00 0.00 50 997.1
20260903123038 69 175 2.0 0.0 0.00 0.00 0.00 51 997.1
20260903122523 69 262 2.0 0.0 0.00 0.00 0.00 51 997.0
20260903122029 69 310 2.0 0.0 0.00 0.00 0.00 52 997.0
20260903121546 70 304 1.0 0.0 0.00 0.00 0.00 51 997.0
20260903121046 69 269 2.0 0.0 0.00 0.00 0.00 52 997.1
20260903120543 69 335 2.0 0.0 0.00 0.00 0.00 55 997.1
20260903120025 69 319 2.0 0.0 0.00 0.00 0.00 54 997.1
20260903115528 69 256 1.0 0.0 0.00 0.00 0.00 54 997.1
20260903115043 69 229 2.0 0.0 0.00 0.00 0.00 53 997.1
20260903114533 69 238 2.0 0.0 0.00 0.00 0.00 52 997.1
20260903114038 69 281 2.0 0.0 0.00 0.00 0.00 58 997.1
20260903113555 69 75 2.0 0.0 0.00 0.00 0.00 55 997.1
20260903113037 69 190 2.0 0.0 0.00 0.00 0.00 55 997.1
20260903112520 69 267 2.0 0.0 0.00 0.00 0.00 54 997.2
20260903112038 68 211 3.0 0.0 0.00 0.00 0.00 57 997.2
20260903111525 68 263 1.0 0.0 0.00 0.00 0.00 53 997.2
20260903111057 68 308 0.0 0.0 0.00 0.00 0.00 57 997.3
20260903110524 67 194 1.0 0.0 0.00 0.00 0.00 59 997.3
20260903110021 67 262 0.0 0.0 0.00 0.00 0.00 58 997.3
20260903105524 68 225 0.0 0.0 0.00 0.00 0.00 57 997.5
20260903105028 69 293 0.0 0.0 0.00 0.00 0.00 56 997.5
20260903104548 70 211 1.0 0.0 0.00 0.00 0.00 58 997.5
20260903104047 70 290 1.0 0.0 0.00 0.00 0.00 55 997.6
20260903103531 70 329 1.0 0.0 0.00 0.00 0.00 57 997.6
20260903103028 70 266 2.0 0.0 0.00 0.00 0.00 57 997.6
20260903102531 69 232 1.0 0.0 0.00 0.00 0.00 58 997.6
20260903102037 68 226 1.0 0.0 0.00 0.00 0.00 59 997.6
20260903101556 67 359 0.0 0.0 0.00 0.00 0.00 62 997.6
20260903101032 65 264 0.0 0.0 0.00 0.00 0.00 65 997.7
20260903100551 65 181 1.0 0.0 0.00 0.00 0.00 64 997.7
20260903100035 65 194 1.0 0.0 0.00 0.00 0.00 66 997.7
20260903095521 65 171 0.0 0.0 0.00 0.00 0.00 66 997.7
20260903095033 66 197 0.0 0.0 0.00 0.00 0.00 64 997.7
20260903094553 66 214 1.0 0.0 0.00 0.00 0.00 64 997.7
20260903094039 67 215 1.0 0.0 0.00 0.00 0.00 62 997.7
20260903093526 68 298 1.0 0.0 0.00 0.00 0.00 61 997.7
20260903093039 68 236 1.0 0.0 0.00 0.00 0.00 65 997.7
20260903092526 68 233 1.0 0.0 0.00 0.00 0.00 63 997.7
20260903092046 68 204 1.0 0.0 0.00 0.00 0.00 64 997.7
20260903091539 68 257 1.0 0.0 0.00 0.00 0.00 65 997.7
20260903091023 68 267 1.0 0.0 0.00 0.00 0.00 66 997.8
20260903090529 68 273 1.0 0.0 0.00 0.00 0.00 65 997.8
20260903090110 68 167 1.0 0.0 0.00 0.00 0.00 67 997.8
20260903085532 67 113 0.0 0.0 0.00 0.00 0.00 65 997.8
20260903085100 67 260 0.0 0.0 0.00 0.00 0.00 66 997.8
20260903084556 67 256 1.0 0.0 0.00 0.00 0.00 68 997.8
20260903084032 66 293 1.0 0.0 0.00 0.00 0.00 69 997.8
20260903083547 66 171 1.0 0.0 0.00 0.00 0.00 69 997.8
20260903083028 66 144 2.0 0.0 0.00 0.00 0.00 68 997.8
20260903082608 66 273 2.0 0.0 0.00 0.00 0.00 68 997.8
20260903082033 66 232 1.0 0.0 0.00 0.00 0.00 69 997.8
20260903081535 66 134 1.0 0.0 0.00 0.00 0.00 72 997.8
20260903081046 65 173 1.0 0.0 0.00 0.00 0.00 71 997.9
20260903080554 65 195 1.0 0.0 0.00 0.00 0.00 74 997.9
20260903080046 64 311 1.0 0.0 0.00 0.00 0.00 76 997.9
20260903075529 63 334 1.0 0.0 0.00 0.00 0.00 77 997.9
20260903075035 62 166 1.0 0.0 0.00 0.00 0.00 80 997.9
20260903074548 61 173 2.0 0.0 0.00 0.00 0.00 81 997.9
20260903074052 61 208 1.0 0.0 0.00 0.00 0.00 82 997.8
20260903073533 61 112 1.0 0.0 0.00 0.00 0.00 84 997.8
20260903073030 61 129 1.0 0.0 0.00 0.00 0.00 84 997.8
20260903072528 61 156 1.0 0.0 0.00 0.00 0.00 84 997.8
20260903072031 61 294 1.0 0.0 0.00 0.00 0.00 85 997.8
20260903071537 60 194 1.0 0.0 0.00 0.00 0.00 87 997.8
20260903071036 59 232 1.0 0.0 0.00 0.00 0.00 88 997.8
20260903070522 59 235 1.0 0.0 0.00 0.00 0.00 89 997.8
20260903070032 59 160 0.0 0.0 0.00 0.00 0.00 90 997.8
20260903065530 59 206 1.0 0.0 0.00 0.00 0.00 90 997.9
20260903065047 58 230 1.0 0.0 0.00 0.00 0.00 91 997.9
20260903064522 58 137 1.0 0.0 0.00 0.00 0.00 93 997.9
20260903064026 58 180 1.0 0.0 0.00 0.00 0.00 94 998.0
20260903063541 58 180 0.0 0.0 0.00 0.00 0.00 95 998.0
20260903063022 57 214 0.0 0.0 0.00 0.00 0.00 96 998.0
20260903062523 57 222 0.0 0.0 0.00 0.00 0.00 96 997.9
20260903062036 57 164 0.0 0.0 0.00 0.00 0.00 97 997.9
20260903061552 57 314 0.0 0.0 0.00 0.00 0.00 97 997.9
20260903061055 57 85 0.0 0.0 0.00 0.00 0.00 98 998.0
20260903060535 56 253 1.0 0.0 0.00 0.00 0.00 98 998.0
20260903060030 56 195 1.0 0.0 0.00 0.00 0.00 99 998.0
20260903055529 56 180 0.0 0.0 0.00 0.00 0.00 100 997.9
20260903055100 56 127 0.0 0.0 0.00 0.00 0.00 100 997.9
20260903054528 56 182 0.0 0.0 0.00 0.00 0.00 100 997.9
20260903054031 56 174 0.0 0.0 0.00 0.00 0.00 100 997.9
20260903053540 56 218 0.0 0.0 0.00 0.00 0.00 100 997.9
20260903053025 56 191 0.0 0.0 0.00 0.00 0.00 100 997.9